Time,TemperatureF,DewpointF,PressureIn,WindDirection,WindDirectionDegrees,WindSpeedMPH,WindSpeedGustMPH,Humidity,HourlyPrecipIn,Conditions,Clouds,dailyrainin,SoftwareType,DateUTC
2013-10-04 00:59:00,65.0,59.0,30.07,SSW,202,0.0,0.0,81,0.00,,,0.00,,2013-10-04 04:59:00,
2013-10-04 01:31:00,64.0,58.0,30.07,SSW,202,0.0,0.0,81,0.00,,,0.00,,2013-10-04 05:31:00,
2013-10-04 01:56:00,64.0,59.0,30.07,SSW,202,0.0,0.0,83,0.00,,,0.00,,2013-10-04 05:56:00,
2013-10-04 02:19:00,64.0,59.0,30.07,SSW,202,0.0,0.0,83,0.00,,,0.00,,2013-10-04 06:19:00,
2013-10-04 02:27:00,64.0,59.0,30.07,SSW,202,0.0,0.0,83,0.00,,,0.00,,2013-10-04 06:27:00,
2013-10-04 02:55:00,64.0,59.0,30.07,SSW,202,0.0,0.0,83,0.00,,,0.00,,2013-10-04 06:55:00,
2013-10-04 03:18:00,64.0,59.0,30.07,SSW,202,0.0,0.0,83,0.00,,,0.00,,2013-10-04 07:18:00,
2013-10-04 03:27:00,64.0,59.0,30.06,SSW,202,0.0,0.0,83,0.00,,,0.00,,2013-10-04 07:27:00,
2013-10-04 03:58:00,64.0,59.0,30.06,SSW,202,0.0,0.0,84,0.00,,,0.00,,2013-10-04 07:58:00,
2013-10-04 04:27:00,63.0,58.0,30.06,SSW,202,0.0,0.0,84,0.00,,,0.00,,2013-10-04 08:27:00,
2013-10-04 04:55:00,63.0,58.0,30.06,SSW,202,0.0,0.0,84,0.00,,,0.00,,2013-10-04 08:55:00,
2013-10-04 05:17:00,63.0,58.0,30.06,SSW,202,0.0,0.0,84,0.00,,,0.00,,2013-10-04 09:17:00,
2013-10-04 05:26:00,63.0,58.0,30.07,SSW,202,0.0,0.0,84,0.00,,,0.00,,2013-10-04 09:26:00,
2013-10-04 06:01:00,62.0,57.0,30.07,SSW,202,0.0,0.0,84,0.00,,,0.00,,2013-10-04 10:01:00,
2013-10-04 06:20:00,62.0,57.0,30.07,SSW,202,0.0,0.0,85,0.00,,,0.00,,2013-10-04 10:20:00,
2013-10-04 06:29:00,62.0,57.0,30.08,SSW,202,0.0,0.0,85,0.00,,,0.00,,2013-10-04 10:29:00,
2013-10-04 06:57:00,62.0,57.0,30.09,SSW,202,0.0,0.0,85,0.00,,,0.00,,2013-10-04 10:57:00,
2013-10-04 07:20:00,63.0,58.0,30.09,SSW,202,0.0,0.0,85,0.00,,,0.00,,2013-10-04 11:20:00,
2013-10-04 07:30:00,63.0,58.0,30.09,SSW,202,0.0,0.0,85,0.00,,,0.00,,2013-10-04 11:30:00,
2013-10-04 07:57:00,63.0,58.0,30.10,SSW,202,0.0,0.0,85,0.00,,,0.00,,2013-10-04 11:57:00,
2013-10-04 08:20:00,63.0,59.0,30.11,SSW,202,0.0,0.0,86,0.00,,,0.00,,2013-10-04 12:20:00,
2013-10-04 08:29:00,63.0,59.0,30.11,SSW,202,0.0,0.0,86,0.00,,,0.00,,2013-10-04 12:29:00,
2013-10-04 08:49:00,63.0,59.0,30.11,SSW,202,0.0,0.0,86,0.00,,,0.00,,2013-10-04 12:49:00,
2013-10-04 08:57:00,63.0,59.0,30.12,SSW,202,0.0,0.0,86,0.00,,,0.00,,2013-10-04 12:57:00,
2013-10-04 09:20:00,64.0,60.0,30.12,SSW,202,0.0,0.0,86,0.00,,,0.00,,2013-10-04 13:20:00,
2013-10-04 09:28:00,64.0,60.0,30.12,SSW,202,0.0,0.0,87,0.00,,,0.00,,2013-10-04 13:28:00,
2013-10-04 09:48:00,65.0,61.0,30.13,WNW,292,0.0,0.0,87,0.00,,,0.00,,2013-10-04 13:48:00,
2013-10-04 09:56:00,65.0,61.0,30.13,WNW,292,0.0,0.0,87,0.00,,,0.00,,2013-10-04 13:56:00,
2013-10-04 10:19:00,65.0,61.0,30.14,West,270,0.0,0.0,86,0.00,,,0.00,,2013-10-04 14:19:00,
2013-10-04 10:28:00,66.0,62.0,30.14,West,270,0.0,0.0,86,0.00,,,0.00,,2013-10-04 14:28:00,
2013-10-04 10:49:00,66.0,62.0,30.13,SW,225,0.0,0.0,86,0.00,,,0.00,,2013-10-04 14:49:00,
2013-10-04 10:57:00,67.0,62.0,30.13,SW,225,0.0,0.0,85,0.00,,,0.00,,2013-10-04 14:57:00,
2013-10-04 11:20:00,67.0,62.0,30.12,SSW,208,0.0,0.0,85,0.00,,,0.00,,2013-10-04 15:20:00,
2013-10-04 11:29:00,68.0,63.0,30.12,SSW,204,2.0,6.0,85,0.00,,,0.00,,2013-10-04 15:29:00,
2013-10-04 11:49:00,68.0,63.0,30.12,SW,225,0.0,0.0,83,0.00,,,0.00,,2013-10-04 15:49:00,
2013-10-04 12:01:00,69.0,64.0,30.11,SW,225,0.0,1.0,83,0.00,,,0.00,,2013-10-04 16:01:00,
2013-10-04 12:20:00,70.0,64.0,30.11,SW,219,2.0,7.0,81,0.00,,,0.00,,2013-10-04 16:20:00,
2013-10-04 12:29:00,72.0,65.0,30.11,SW,225,2.0,6.0,79,0.00,,,0.00,,2013-10-04 16:29:00,
2013-10-04 12:50:00,72.0,64.0,30.11,SW,219,1.0,6.0,77,0.00,,,0.00,,2013-10-04 16:50:00,
2013-10-04 12:57:00,74.0,66.0,30.10,SSW,202,1.0,6.0,76,0.00,,,0.00,,2013-10-04 16:57:00,
2013-10-04 13:20:00,74.0,65.0,30.10,SSW,202,1.0,6.0,74,0.00,,,0.00,,2013-10-04 17:20:00,
2013-10-04 13:29:00,75.0,65.0,30.10,SSW,202,0.0,2.0,72,0.00,,,0.00,,2013-10-04 17:29:00,
2013-10-04 14:04:00,74.0,64.0,30.09,SSW,202,0.0,0.0,72,0.00,,,0.00,,2013-10-04 18:04:00,
2013-10-04 14:23:00,74.0,65.0,30.09,South,180,0.0,0.0,73,0.00,,,0.00,,2013-10-04 18:23:00,
2013-10-04 14:30:00,74.0,65.0,30.08,SSW,202,0.0,8.0,74,0.00,,,0.00,,2013-10-04 18:30:00,
2013-10-04 14:50:00,75.0,65.0,30.08,SW,220,4.0,9.0,72,0.00,,,0.00,,2013-10-04 18:50:00,
2013-10-04 14:55:00,76.0,65.0,30.07,SW,222,1.0,5.0,69,0.00,,,0.00,,2013-10-04 18:55:00,
2013-10-04 15:12:00,76.0,64.0,30.07,SSW,202,0.0,2.0,67,0.00,,,0.00,,2013-10-04 19:12:00,
2013-10-04 15:22:00,77.0,65.0,30.07,West,269,0.0,0.0,67,0.00,,,0.00,,2013-10-04 19:22:00,
2013-10-04 15:43:00,77.0,65.0,30.07,West,270,0.0,0.0,66,0.00,,,0.00,,2013-10-04 19:43:00,
2013-10-04 15:52:00,76.0,64.0,30.07,South,180,0.0,0.0,66,0.00,,,0.00,,2013-10-04 19:52:00,
2013-10-04 16:11:00,76.0,64.0,30.07,SSW,202,0.0,3.0,66,0.00,,,0.00,,2013-10-04 20:11:00,
2013-10-04 16:22:00,76.0,64.0,30.07,West,260,0.0,2.0,67,0.00,,,0.00,,2013-10-04 20:22:00,
2013-10-04 16:53:00,76.0,63.0,30.06,SSW,202,1.0,6.0,65,0.00,,,0.00,,2013-10-04 20:53:00,
2013-10-04 17:12:00,76.0,64.0,30.06,SSW,202,0.0,0.0,66,0.00,,,0.00,,2013-10-04 21:12:00,
2013-10-04 17:22:00,76.0,64.0,30.06,South,180,0.0,2.0,66,0.00,,,0.00,,2013-10-04 21:22:00,
2013-10-04 17:54:00,76.0,63.0,30.06,South,190,0.0,1.0,65,0.00,,,0.00,,2013-10-04 21:54:00,
2013-10-04 18:12:00,75.0,63.0,30.06,SSW,198,0.0,5.0,66,0.00,,,0.00,,2013-10-04 22:12:00,
2013-10-04 18:23:00,75.0,63.0,30.07,SSW,202,0.0,0.0,66,0.00,,,0.00,,2013-10-04 22:23:00,
2013-10-04 18:43:00,75.0,63.0,30.07,SSW,202,0.0,0.0,67,0.00,,,0.00,,2013-10-04 22:43:00,
2013-10-04 18:52:00,74.0,63.0,30.07,SSW,202,0.0,0.0,68,0.00,,,0.00,,2013-10-04 22:52:00,
2013-10-04 19:22:00,73.0,62.0,30.08,SSW,202,0.0,0.0,69,0.00,,,0.00,,2013-10-04 23:22:00,
2013-10-04 19:53:00,72.0,62.0,30.08,SSW,202,0.0,0.0,70,0.00,,,0.00,,2013-10-04 23:53:00,
2013-10-04 20:12:00,72.0,62.0,30.08,SSW,202,0.0,0.0,70,0.00,,,0.00,,2013-10-05 00:12:00,
2013-10-04 20:22:00,71.0,61.0,30.08,SSW,202,0.0,0.0,71,0.00,,,0.00,,2013-10-05 00:22:00,
2013-10-04 20:42:00,71.0,62.0,30.09,SSW,202,0.0,0.0,72,0.00,,,0.00,,2013-10-05 00:42:00,
2013-10-04 20:53:00,71.0,62.0,30.08,SSW,202,0.0,0.0,72,0.00,,,0.00,,2013-10-05 00:53:00,
2013-10-04 21:11:00,71.0,62.0,30.08,SSW,202,0.0,0.0,73,0.00,,,0.00,,2013-10-05 01:11:00,
2013-10-04 21:21:00,71.0,62.0,30.08,SSW,202,0.0,0.0,73,0.00,,,0.00,,2013-10-05 01:21:00,
2013-10-04 21:43:00,71.0,62.0,30.08,SSW,202,0.0,0.0,73,0.00,,,0.00,,2013-10-05 01:43:00,
2013-10-04 21:52:00,70.0,61.0,30.08,SSW,202,0.0,0.0,74,0.00,,,0.00,,2013-10-05 01:52:00,
2013-10-04 22:11:00,70.0,61.0,30.08,SSW,202,0.0,0.0,74,0.00,,,0.00,,2013-10-05 02:11:00,
2013-10-04 22:22:00,70.0,61.0,30.08,SSW,202,0.0,0.0,74,0.00,,,0.00,,2013-10-05 02:22:00,
2013-10-04 22:42:00,69.0,61.0,30.09,SSW,202,0.0,0.0,75,0.00,,,0.00,,2013-10-05 02:42:00,
2013-10-04 22:52:00,69.0,61.0,30.09,SSW,202,0.0,0.0,75,0.00,,,0.00,,2013-10-05 02:52:00,
2013-10-04 23:03:00,69.0,61.0,30.09,SSW,202,0.0,0.0,75,0.00,,,0.00,,2013-10-05 03:03:00,
2013-10-04 23:12:00,69.0,61.0,30.09,SSW,202,0.0,0.0,75,0.00,,,0.00,,2013-10-05 03:12:00,
2013-10-04 23:23:00,68.0,60.0,30.10,SSW,202,0.0,0.0,76,0.00,,,0.00,,2013-10-05 03:23:00,
2013-10-04 23:45:00,68.0,60.0,30.10,SSW,202,0.0,0.0,76,0.00,,,0.00,,2013-10-05 03:45:00,
2013-10-04 23:55:00,68.0,61.0,30.09,SSW,202,0.0,0.0,77,0.00,,,0.00,,2013-10-05 03:55:00,